Year,Month,Day,Hour,Minute,Value (Times are PST for temperature in C)
2010,07,14,00,00,10.30
2010,07,14,00,01,10.30
2010,07,14,00,02,10.20
2010,07,14,00,03,10.20
2010,07,14,00,04,10.20
2010,07,14,00,05,10.20
2010,07,14,00,06,10.20
2010,07,14,00,07,10.10
2010,07,14,00,08,10.10
2010,07,14,00,09,10.10
2010,07,14,00,10,10.10
2010,07,14,00,11,10.10
2010,07,14,00,12,10.10
2010,07,14,00,13,10.10
2010,07,14,00,14,10.10
2010,07,14,00,15,10.00
2010,07,14,00,16,9.90
2010,07,14,00,17,9.90
2010,07,14,00,18,9.90
2010,07,14,00,19,9.90
2010,07,14,00,20,9.90
2010,07,14,00,21,9.90
2010,07,14,00,22,9.90
2010,07,14,00,23,9.90
2010,07,14,00,24,9.90
2010,07,14,00,25,9.90
2010,07,14,00,26,9.90
2010,07,14,00,27,9.90
2010,07,14,00,28,9.90
2010,07,14,00,29,9.90
2010,07,14,00,30,9.80
2010,07,14,00,31,9.80
2010,07,14,00,32,9.80
2010,07,14,00,33,9.80
2010,07,14,00,34,9.80
2010,07,14,00,35,9.80
2010,07,14,00,36,9.70
2010,07,14,00,37,9.70
2010,07,14,00,38,9.70
2010,07,14,00,39,9.70
2010,07,14,00,40,9.70
2010,07,14,00,41,9.70
2010,07,14,00,42,9.70
2010,07,14,00,43,9.70
2010,07,14,00,44,9.70
2010,07,14,00,45,9.60
2010,07,14,00,46,9.60
2010,07,14,00,47,9.60
2010,07,14,00,48,9.60
2010,07,14,00,49,9.60
2010,07,14,00,50,9.60
2010,07,14,00,51,9.60
2010,07,14,00,52,9.60
2010,07,14,00,53,9.60
2010,07,14,00,54,9.60
2010,07,14,00,55,9.50
2010,07,14,00,56,9.50
2010,07,14,00,57,9.50
2010,07,14,00,58,9.50
2010,07,14,00,59,9.50
2010,07,14,01,00,9.50
2010,07,14,01,01,9.40
2010,07,14,01,02,9.40
2010,07,14,01,03,9.40
2010,07,14,01,04,9.40
2010,07,14,01,05,9.30
2010,07,14,01,06,9.30
2010,07,14,01,07,9.30
2010,07,14,01,08,9.30
2010,07,14,01,09,9.20
2010,07,14,01,10,9.20
2010,07,14,01,11,9.20
2010,07,14,01,12,9.20
2010,07,14,01,13,9.20
2010,07,14,01,14,9.20
2010,07,14,01,15,9.20
2010,07,14,01,16,9.20
2010,07,14,01,17,9.30
2010,07,14,01,18,9.30
2010,07,14,01,19,9.30
2010,07,14,01,20,9.40
2010,07,14,01,21,9.40
2010,07,14,01,22,9.30
2010,07,14,01,23,9.30
2010,07,14,01,24,9.30
2010,07,14,01,25,9.30
2010,07,14,01,26,9.30
2010,07,14,01,27,9.30
2010,07,14,01,28,9.30
2010,07,14,01,29,9.30
2010,07,14,01,30,9.30
2010,07,14,01,31,9.30
2010,07,14,01,32,9.30
2010,07,14,01,33,9.30
2010,07,14,01,34,9.30
2010,07,14,01,35,9.20
2010,07,14,01,36,9.20
2010,07,14,01,37,9.20
2010,07,14,01,38,9.20
2010,07,14,01,39,9.30
2010,07,14,01,40,9.30
2010,07,14,01,41,9.30
2010,07,14,01,42,9.30
2010,07,14,01,43,9.30
2010,07,14,01,44,9.30
2010,07,14,01,45,9.30
2010,07,14,01,46,9.30
2010,07,14,01,47,9.30
2010,07,14,01,48,9.30
2010,07,14,01,49,9.30
2010,07,14,01,50,9.20
2010,07,14,01,51,9.20
2010,07,14,01,52,9.20
2010,07,14,01,53,9.20
2010,07,14,01,54,9.20
2010,07,14,01,55,9.20
2010,07,14,01,56,9.20
2010,07,14,01,57,9.20
2010,07,14,01,58,9.20
2010,07,14,01,59,9.20
2010,07,14,02,00,9.20
2010,07,14,02,01,9.20
2010,07,14,02,02,9.20
2010,07,14,02,03,9.20
2010,07,14,02,04,9.20
2010,07,14,02,05,9.20
2010,07,14,02,06,9.20
2010,07,14,02,07,9.20
2010,07,14,02,08,9.20
2010,07,14,02,09,9.20
2010,07,14,02,10,9.10
2010,07,14,02,11,9.10
2010,07,14,02,12,9.10
2010,07,14,02,13,9.10
2010,07,14,02,14,9.10
2010,07,14,02,15,9.10
2010,07,14,02,16,9.20
2010,07,14,02,17,9.20
2010,07,14,02,18,9.20
2010,07,14,02,19,9.20
2010,07,14,02,20,9.20
2010,07,14,02,21,9.20
2010,07,14,02,22,9.20
2010,07,14,02,23,9.20
2010,07,14,02,24,9.30
2010,07,14,02,25,9.30
2010,07,14,02,26,9.30
2010,07,14,02,27,9.30
2010,07,14,02,28,9.30
2010,07,14,02,29,9.30
2010,07,14,02,30,9.30
2010,07,14,02,31,9.30
2010,07,14,02,32,9.30
2010,07,14,02,33,9.30
2010,07,14,02,34,9.30
2010,07,14,02,35,9.30
2010,07,14,02,36,9.20
2010,07,14,02,37,9.30
2010,07,14,02,38,9.30
2010,07,14,02,39,9.30
2010,07,14,02,40,9.30
2010,07,14,02,41,9.30
2010,07,14,02,42,9.30
2010,07,14,02,43,9.30
2010,07,14,02,44,9.30
2010,07,14,02,45,9.40
2010,07,14,02,46,9.40
2010,07,14,02,47,9.40
2010,07,14,02,48,9.50
2010,07,14,02,49,9.50
2010,07,14,02,50,9.40
2010,07,14,02,51,9.40
2010,07,14,02,52,9.30
2010,07,14,02,53,9.30
2010,07,14,02,54,9.20
2010,07,14,02,55,9.20
2010,07,14,02,56,9.20
2010,07,14,02,57,9.10
2010,07,14,02,58,9.10
2010,07,14,02,59,9.10
2010,07,14,03,00,9.10
2010,07,14,03,01,9.00
2010,07,14,03,02,9.00
2010,07,14,03,03,9.00
2010,07,14,03,04,9.00
2010,07,14,03,05,9.00
2010,07,14,03,06,9.00
2010,07,14,03,07,9.00
2010,07,14,03,08,9.00
2010,07,14,03,09,9.00
2010,07,14,03,10,9.00
2010,07,14,03,11,9.00
2010,07,14,03,12,9.00
2010,07,14,03,13,9.00
2010,07,14,03,14,8.90
2010,07,14,03,15,8.90
2010,07,14,03,16,8.90
2010,07,14,03,17,8.90
2010,07,14,03,18,8.90
2010,07,14,03,19,8.90
2010,07,14,03,20,8.80
2010,07,14,03,21,8.80
2010,07,14,03,22,8.80
2010,07,14,03,23,8.80
2010,07,14,03,24,8.80
2010,07,14,03,25,8.80
2010,07,14,03,26,8.80
2010,07,14,03,27,8.80
2010,07,14,03,28,8.80
2010,07,14,03,29,8.80
2010,07,14,03,30,8.80
2010,07,14,03,31,8.80
2010,07,14,03,32,8.80
2010,07,14,03,33,8.80
2010,07,14,03,34,8.80
2010,07,14,03,35,8.80
2010,07,14,03,36,8.80
2010,07,14,03,37,8.80
2010,07,14,03,38,8.80
2010,07,14,03,39,8.80
2010,07,14,03,40,8.80
2010,07,14,03,41,8.80
2010,07,14,03,42,8.70
2010,07,14,03,43,8.70
2010,07,14,03,44,8.70
2010,07,14,03,45,8.70
2010,07,14,03,46,8.70
2010,07,14,03,47,8.70
2010,07,14,03,48,8.70
2010,07,14,03,49,8.70
2010,07,14,03,50,8.70
2010,07,14,03,51,8.70
2010,07,14,03,52,8.70
2010,07,14,03,53,8.80
2010,07,14,03,54,8.80
2010,07,14,03,55,8.80
2010,07,14,03,56,8.80
2010,07,14,03,57,8.80
2010,07,14,03,58,8.80
2010,07,14,03,59,8.80
2010,07,14,04,00,8.70
2010,07,14,04,01,8.70
2010,07,14,04,02,8.70
2010,07,14,04,03,8.60
2010,07,14,04,04,8.60
2010,07,14,04,05,8.60
2010,07,14,04,06,8.60
2010,07,14,04,07,8.60
2010,07,14,04,08,8.60
2010,07,14,04,09,8.50
2010,07,14,04,10,8.50
2010,07,14,04,11,8.50
2010,07,14,04,12,8.50
2010,07,14,04,13,8.50
2010,07,14,04,14,8.60
2010,07,14,04,15,8.60
2010,07,14,04,16,8.70
2010,07,14,04,17,8.70
2010,07,14,04,18,8.70
2010,07,14,04,19,8.60
2010,07,14,04,20,8.60
2010,07,14,04,21,8.50
2010,07,14,04,22,8.50
2010,07,14,04,23,8.50
2010,07,14,04,24,8.40
2010,07,14,04,25,8.40
2010,07,14,04,26,8.30
2010,07,14,04,27,8.30
2010,07,14,04,28,8.30
2010,07,14,04,29,8.20
2010,07,14,04,30,8.20
2010,07,14,04,31,8.20
2010,07,14,04,32,8.20
2010,07,14,04,33,8.20
2010,07,14,04,34,8.30
2010,07,14,04,35,8.30
2010,07,14,04,36,8.30
2010,07,14,04,37,8.30
2010,07,14,04,38,8.30
2010,07,14,04,39,8.20
2010,07,14,04,40,8.20
2010,07,14,04,41,8.20
2010,07,14,04,42,8.20
2010,07,14,04,43,8.20
2010,07,14,04,44,8.20
2010,07,14,04,45,8.20
2010,07,14,04,46,8.20
2010,07,14,04,47,8.20
2010,07,14,04,48,8.20
2010,07,14,04,49,8.20
2010,07,14,04,50,8.20
2010,07,14,04,51,8.10
2010,07,14,04,52,8.10
2010,07,14,04,53,8.10
2010,07,14,04,54,8.00
2010,07,14,04,55,8.00
2010,07,14,04,56,8.00
2010,07,14,04,57,8.00
2010,07,14,04,58,8.00
2010,07,14,04,59,8.00
2010,07,14,05,00,8.00
2010,07,14,05,01,8.00
2010,07,14,05,02,8.00
2010,07,14,05,03,7.90
2010,07,14,05,04,7.90
2010,07,14,05,05,7.90
2010,07,14,05,06,7.90
2010,07,14,05,07,7.90
2010,07,14,05,08,7.80
2010,07,14,05,09,7.80
2010,07,14,05,10,7.80
2010,07,14,05,11,7.80
2010,07,14,05,12,7.80
2010,07,14,05,13,7.80
2010,07,14,05,14,7.80
2010,07,14,05,15,7.80
2010,07,14,05,16,7.80
2010,07,14,05,17,7.70
2010,07,14,05,18,7.70
2010,07,14,05,19,7.70
2010,07,14,05,20,7.60
2010,07,14,05,21,7.60
2010,07,14,05,22,7.60
2010,07,14,05,23,7.60
2010,07,14,05,24,7.50
2010,07,14,05,25,7.50
2010,07,14,05,26,7.50
2010,07,14,05,27,7.50
2010,07,14,05,28,7.60
2010,07,14,05,29,7.60
2010,07,14,05,30,7.60
2010,07,14,05,31,7.60
2010,07,14,05,32,7.60
2010,07,14,05,33,7.60
2010,07,14,05,34,7.60
2010,07,14,05,35,7.60
2010,07,14,05,36,7.60
2010,07,14,05,37,7.50
2010,07,14,05,38,7.50
2010,07,14,05,39,7.50
2010,07,14,05,40,7.50
2010,07,14,05,41,7.50
2010,07,14,05,42,7.50
2010,07,14,05,43,7.50
2010,07,14,05,44,7.50
2010,07,14,05,45,7.40
2010,07,14,05,46,7.40
2010,07,14,05,47,7.40
2010,07,14,05,48,7.40
2010,07,14,05,49,7.40
2010,07,14,05,50,7.50
2010,07,14,05,51,7.50
2010,07,14,05,52,7.60
2010,07,14,05,53,7.60
2010,07,14,05,54,7.60
2010,07,14,05,55,7.70
2010,07,14,05,56,7.70
2010,07,14,05,57,7.70
2010,07,14,05,58,7.80
2010,07,14,05,59,7.80
2010,07,14,06,00,7.80
2010,07,14,06,01,7.80
2010,07,14,06,02,7.90
2010,07,14,06,03,7.90
2010,07,14,06,04,8.00
2010,07,14,06,05,8.00
2010,07,14,06,06,8.00
2010,07,14,06,07,8.00
2010,07,14,06,08,8.00
2010,07,14,06,09,8.00
2010,07,14,06,10,8.00
2010,07,14,06,11,8.00
2010,07,14,06,12,8.00
2010,07,14,06,13,8.00
2010,07,14,06,14,8.10
2010,07,14,06,15,8.20
2010,07,14,06,16,8.20
2010,07,14,06,17,8.30
2010,07,14,06,18,8.30
2010,07,14,06,19,8.40
2010,07,14,06,20,8.40
2010,07,14,06,21,8.40
2010,07,14,06,22,8.50
2010,07,14,06,23,8.50
2010,07,14,06,24,8.50
2010,07,14,06,25,8.60
2010,07,14,06,26,8.60
2010,07,14,06,27,8.60
2010,07,14,06,28,8.60
2010,07,14,06,29,8.60
2010,07,14,06,30,8.60
2010,07,14,06,31,8.60
2010,07,14,06,32,8.60
2010,07,14,06,33,8.70
2010,07,14,06,34,8.70
2010,07,14,06,35,8.80
2010,07,14,06,36,8.90
2010,07,14,06,37,9.00
2010,07,14,06,38,9.00
2010,07,14,06,39,9.10
2010,07,14,06,40,9.20
2010,07,14,06,41,9.30
2010,07,14,06,42,9.30
2010,07,14,06,43,9.40
2010,07,14,06,44,9.40
2010,07,14,06,45,9.40
2010,07,14,06,46,9.50
2010,07,14,06,47,9.50
2010,07,14,06,48,9.50
2010,07,14,06,49,9.60
2010,07,14,06,50,9.70
2010,07,14,06,51,9.70
2010,07,14,06,52,9.80
2010,07,14,06,53,9.90
2010,07,14,06,54,9.90
2010,07,14,06,55,10.00
2010,07,14,06,56,10.10
2010,07,14,06,57,10.10
2010,07,14,06,58,10.20
2010,07,14,06,59,10.30
2010,07,14,07,00,10.40
2010,07,14,07,01,10.50
2010,07,14,07,02,10.60
2010,07,14,07,03,10.60
2010,07,14,07,04,10.70
2010,07,14,07,05,10.70
2010,07,14,07,06,10.80
2010,07,14,07,07,10.80
2010,07,14,07,08,10.80
2010,07,14,07,09,10.90
2010,07,14,07,10,10.90
2010,07,14,07,11,10.90
2010,07,14,07,12,10.90
2010,07,14,07,13,11.00
2010,07,14,07,14,11.10
2010,07,14,07,15,11.10
2010,07,14,07,16,11.20
2010,07,14,07,17,11.40
2010,07,14,07,18,11.40
2010,07,14,07,19,11.60
2010,07,14,07,20,11.60
2010,07,14,07,21,11.70
2010,07,14,07,22,11.80
2010,07,14,07,23,11.80
2010,07,14,07,24,11.80
2010,07,14,07,25,11.90
2010,07,14,07,26,11.90
2010,07,14,07,27,12.00
2010,07,14,07,28,12.00
2010,07,14,07,29,12.00
2010,07,14,07,30,12.10
2010,07,14,07,31,12.10
2010,07,14,07,32,12.20
2010,07,14,07,33,12.30
2010,07,14,07,34,12.40
2010,07,14,07,35,12.40
2010,07,14,07,36,12.50
2010,07,14,07,37,12.40
2010,07,14,07,38,12.40
2010,07,14,07,39,12.40
2010,07,14,07,40,12.40
2010,07,14,07,41,12.40
2010,07,14,07,42,12.50
2010,07,14,07,43,12.50
2010,07,14,07,44,12.60
2010,07,14,07,45,12.60
2010,07,14,07,46,12.60
2010,07,14,07,47,12.60
2010,07,14,07,48,12.60
2010,07,14,07,49,12.60
2010,07,14,07,50,12.70
2010,07,14,07,51,12.70
2010,07,14,07,52,12.80
2010,07,14,07,53,12.80
2010,07,14,07,54,12.80
2010,07,14,07,55,12.70
2010,07,14,07,56,12.60
2010,07,14,07,57,12.50
2010,07,14,07,58,12.40
2010,07,14,07,59,12.40
2010,07,14,08,00,12.40
2010,07,14,08,01,12.40
2010,07,14,08,02,12.40
2010,07,14,08,03,12.40
2010,07,14,08,04,12.40
2010,07,14,08,05,12.40
2010,07,14,08,06,12.30
2010,07,14,08,07,12.30
2010,07,14,08,08,12.30
2010,07,14,08,09,12.40
2010,07,14,08,10,12.40
2010,07,14,08,11,12.50
2010,07,14,08,12,12.60
2010,07,14,08,13,12.70
2010,07,14,08,14,12.70
2010,07,14,08,15,12.80
2010,07,14,08,16,12.90
2010,07,14,08,17,13.00
2010,07,14,08,18,13.10
2010,07,14,08,19,13.20
2010,07,14,08,20,13.20
2010,07,14,08,21,13.30
2010,07,14,08,22,13.30
2010,07,14,08,23,13.30
2010,07,14,08,24,13.30
2010,07,14,08,25,13.30
2010,07,14,08,26,13.30
2010,07,14,08,27,13.30
2010,07,14,08,28,13.30
2010,07,14,08,29,13.10
2010,07,14,08,30,12.90
2010,07,14,08,31,12.80
2010,07,14,08,32,12.60
2010,07,14,08,33,12.50
2010,07,14,08,34,12.40
2010,07,14,08,35,12.30
2010,07,14,08,36,12.20
2010,07,14,08,37,12.00
2010,07,14,08,38,11.80
2010,07,14,08,39,11.70
2010,07,14,08,40,11.70
2010,07,14,08,41,11.60
2010,07,14,08,42,11.60
2010,07,14,08,43,11.60
2010,07,14,08,44,11.50
2010,07,14,08,45,11.40
2010,07,14,08,46,11.40
2010,07,14,08,47,11.30
2010,07,14,08,48,11.30
2010,07,14,08,49,11.40
2010,07,14,08,50,11.40
2010,07,14,08,51,11.40
2010,07,14,08,52,11.60
2010,07,14,08,53,11.70
2010,07,14,08,54,11.70
2010,07,14,08,55,11.70
2010,07,14,08,56,11.80
2010,07,14,08,57,11.80
2010,07,14,08,58,11.80
2010,07,14,08,59,11.70
2010,07,14,09,00,11.70
2010,07,14,09,01,11.60
2010,07,14,09,02,11.60
2010,07,14,09,03,11.60
2010,07,14,09,04,11.60
2010,07,14,09,05,11.70
2010,07,14,09,06,11.60
2010,07,14,09,07,11.70
2010,07,14,09,08,11.80
2010,07,14,09,09,11.90
2010,07,14,09,10,12.10
2010,07,14,09,11,12.30
2010,07,14,09,12,12.30
2010,07,14,09,13,12.30
2010,07,14,09,14,12.30
2010,07,14,09,15,12.30
2010,07,14,09,16,12.30
2010,07,14,09,17,12.30
2010,07,14,09,18,12.50
2010,07,14,09,19,12.60
2010,07,14,09,20,12.70
2010,07,14,09,21,12.90
2010,07,14,09,22,13.10
2010,07,14,09,23,13.10
2010,07,14,09,24,13.10
2010,07,14,09,25,13.10
2010,07,14,09,26,13.20
2010,07,14,09,27,13.10
2010,07,14,09,28,13.20
2010,07,14,09,29,13.20
2010,07,14,09,30,13.10
2010,07,14,09,31,12.90
2010,07,14,09,32,12.70
2010,07,14,09,33,12.50
2010,07,14,09,34,12.40
2010,07,14,09,35,12.30
2010,07,14,09,36,12.30
2010,07,14,09,37,12.30
2010,07,14,09,38,12.20
2010,07,14,09,39,12.10
2010,07,14,09,40,12.10
2010,07,14,09,41,12.10
2010,07,14,09,42,12.30
2010,07,14,09,43,12.30
2010,07,14,09,44,12.30
2010,07,14,09,45,12.30
2010,07,14,09,46,12.30
2010,07,14,09,47,12.30
2010,07,14,09,48,12.40
2010,07,14,09,49,12.40
2010,07,14,09,50,12.30
2010,07,14,09,51,12.30
2010,07,14,09,52,12.40
2010,07,14,09,53,12.40
2010,07,14,09,54,12.50
2010,07,14,09,55,12.60
2010,07,14,09,56,12.70
2010,07,14,09,57,12.80
2010,07,14,09,58,12.70
2010,07,14,09,59,12.70
2010,07,14,10,00,12.70
2010,07,14,10,01,12.80
2010,07,14,10,02,12.80
2010,07,14,10,03,12.70
2010,07,14,10,04,12.60
2010,07,14,10,05,12.50
2010,07,14,10,06,12.40
2010,07,14,10,07,12.40
2010,07,14,10,08,12.40
2010,07,14,10,09,12.40
2010,07,14,10,10,12.50
2010,07,14,10,11,12.60
2010,07,14,10,12,12.60
2010,07,14,10,13,12.50
2010,07,14,10,14,12.40
2010,07,14,10,15,12.40
2010,07,14,10,16,12.50
2010,07,14,10,17,12.50
2010,07,14,10,18,12.50
2010,07,14,10,19,12.60
2010,07,14,10,20,12.60
2010,07,14,10,21,12.60
2010,07,14,10,22,12.60
2010,07,14,10,23,12.50
2010,07,14,10,24,12.40
2010,07,14,10,25,12.40
2010,07,14,10,26,12.40
2010,07,14,10,27,12.40
2010,07,14,10,28,12.40
2010,07,14,10,29,12.50
2010,07,14,10,30,12.50
2010,07,14,10,31,12.50
2010,07,14,10,32,12.50
2010,07,14,10,33,12.60
2010,07,14,10,34,12.60
2010,07,14,10,35,12.70
2010,07,14,10,36,12.70
2010,07,14,10,37,12.70
2010,07,14,10,38,12.60
2010,07,14,10,39,12.60
2010,07,14,10,40,12.60
2010,07,14,10,41,12.80
2010,07,14,10,42,12.80
2010,07,14,10,43,12.90
2010,07,14,10,44,13.00
2010,07,14,10,45,13.10
2010,07,14,10,46,13.10
2010,07,14,10,47,13.20
2010,07,14,10,48,13.20
2010,07,14,10,49,13.20
2010,07,14,10,50,13.30
2010,07,14,10,51,13.20
2010,07,14,10,52,13.10
2010,07,14,10,53,13.20
2010,07,14,10,54,13.20
2010,07,14,10,55,13.20
2010,07,14,10,56,13.10
2010,07,14,10,57,13.00
2010,07,14,10,58,13.00
2010,07,14,10,59,12.80
2010,07,14,11,00,13.00
2010,07,14,11,01,13.00
2010,07,14,11,02,13.10
2010,07,14,11,03,13.10
2010,07,14,11,04,13.20
2010,07,14,11,05,13.10
2010,07,14,11,06,12.90
2010,07,14,11,07,12.90
2010,07,14,11,08,13.00
2010,07,14,11,09,13.10
2010,07,14,11,10,13.20
2010,07,14,11,11,13.20
2010,07,14,11,12,13.30
2010,07,14,11,13,13.40
2010,07,14,11,14,13.50
2010,07,14,11,15,13.50
2010,07,14,11,16,13.40
2010,07,14,11,17,13.50
2010,07,14,11,18,13.60
2010,07,14,11,19,13.60
2010,07,14,11,20,13.60
2010,07,14,11,21,13.50
2010,07,14,11,22,13.40
2010,07,14,11,23,13.30
2010,07,14,11,24,13.10
2010,07,14,11,25,13.10
2010,07,14,11,26,13.00
2010,07,14,11,27,13.00
2010,07,14,11,28,13.00
2010,07,14,11,29,13.10
2010,07,14,11,30,13.20
2010,07,14,11,31,13.20
2010,07,14,11,32,13.10
2010,07,14,11,33,13.00
2010,07,14,11,34,13.00
2010,07,14,11,35,13.10
2010,07,14,11,36,13.10
2010,07,14,11,37,13.10
2010,07,14,11,38,13.10
2010,07,14,11,39,13.10
2010,07,14,11,40,13.20
2010,07,14,11,41,13.30
2010,07,14,11,42,13.20
2010,07,14,11,43,13.10
2010,07,14,11,44,13.00
2010,07,14,11,45,12.90
2010,07,14,11,46,12.70
2010,07,14,11,47,12.60
2010,07,14,11,48,12.60
2010,07,14,11,49,12.60
2010,07,14,11,50,12.60
2010,07,14,11,51,12.60
2010,07,14,11,52,12.50
2010,07,14,11,53,12.70
2010,07,14,11,54,12.80
2010,07,14,11,55,12.70
2010,07,14,11,56,12.70
2010,07,14,11,57,12.70
2010,07,14,11,58,12.80
2010,07,14,11,59,12.80
2010,07,14,12,00,12.90
2010,07,14,12,01,13.00
2010,07,14,12,02,13.10
2010,07,14,12,03,13.20
2010,07,14,12,04,13.40
2010,07,14,12,05,13.60
2010,07,14,12,13,15.00
2010,07,14,12,14,15.00
2010,07,14,12,15,15.10
2010,07,14,12,16,14.90
2010,07,14,12,17,14.70
2010,07,14,12,18,14.60
2010,07,14,12,19,14.40
2010,07,14,12,20,14.20
2010,07,14,12,21,14.20
2010,07,14,12,22,14.20
2010,07,14,12,23,14.40
2010,07,14,12,24,14.60
2010,07,14,12,25,14.80
2010,07,14,12,26,14.80
2010,07,14,12,27,14.70
2010,07,14,12,28,14.60
2010,07,14,12,29,14.50
2010,07,14,12,30,14.50
2010,07,14,12,31,14.40
2010,07,14,12,32,14.50
2010,07,14,12,33,14.70
2010,07,14,12,34,15.20
2010,07,14,12,35,15.40
2010,07,14,12,36,15.40
2010,07,14,12,37,15.50
2010,07,14,12,38,15.50
2010,07,14,12,39,15.50
2010,07,14,12,40,15.50
2010,07,14,12,41,15.60
2010,07,14,12,42,15.70
2010,07,14,12,43,15.80
2010,07,14,12,44,15.50
2010,07,14,12,45,15.10
2010,07,14,12,46,14.90
2010,07,14,12,47,14.80
2010,07,14,12,48,14.60
2010,07,14,12,49,14.40
2010,07,14,12,50,14.10
2010,07,14,12,51,13.90
2010,07,14,12,52,13.70
2010,07,14,12,53,13.70
2010,07,14,12,54,13.70
2010,07,14,12,55,13.70
2010,07,14,12,56,13.70
2010,07,14,12,57,13.80
2010,07,14,12,58,13.90
2010,07,14,12,59,13.80
2010,07,14,13,00,13.90
2010,07,14,13,01,14.20
2010,07,14,13,02,14.20
2010,07,14,13,03,14.30
2010,07,14,13,04,14.40
2010,07,14,13,05,14.50
2010,07,14,13,06,14.50
2010,07,14,13,07,14.40
2010,07,14,13,08,14.20
2010,07,14,13,09,14.20
2010,07,14,13,10,14.30
2010,07,14,13,11,14.50
2010,07,14,13,12,14.50
2010,07,14,13,13,14.60
2010,07,14,13,14,14.60
2010,07,14,13,15,14.60
2010,07,14,13,16,14.70
2010,07,14,13,17,14.60
2010,07,14,13,18,14.50
2010,07,14,13,19,14.40
2010,07,14,13,20,14.40
2010,07,14,13,21,14.30
2010,07,14,13,22,14.20
2010,07,14,13,23,14.10
2010,07,14,13,24,14.10
2010,07,14,13,25,14.10
2010,07,14,13,26,14.10
2010,07,14,13,27,14.20
2010,07,14,13,28,14.30
2010,07,14,13,29,14.30
2010,07,14,13,30,14.20
2010,07,14,13,31,14.30
2010,07,14,13,32,14.40
2010,07,14,13,33,14.50
2010,07,14,13,34,14.70
2010,07,14,13,35,14.90
2010,07,14,13,36,14.90
2010,07,14,13,37,14.80
2010,07,14,13,38,14.90
2010,07,14,13,39,15.10
2010,07,14,13,40,15.20
2010,07,14,13,41,15.20
2010,07,14,13,42,15.10
2010,07,14,13,43,14.90
2010,07,14,13,44,14.60
2010,07,14,13,45,14.60
2010,07,14,13,46,14.60
2010,07,14,13,47,14.70
2010,07,14,13,48,14.80
2010,07,14,13,49,14.70
2010,07,14,13,50,14.80
2010,07,14,13,51,15.00
2010,07,14,13,52,15.20
2010,07,14,13,53,15.40
2010,07,14,13,54,15.50
2010,07,14,13,55,15.40
2010,07,14,13,56,15.50
2010,07,14,13,57,15.50
2010,07,14,13,58,15.50
2010,07,14,13,59,15.60
2010,07,14,14,00,15.70
2010,07,14,14,01,15.70
2010,07,14,14,02,15.80
2010,07,14,14,03,16.00
2010,07,14,14,04,16.20
2010,07,14,14,05,16.20
2010,07,14,14,06,16.20
2010,07,14,14,07,16.00
2010,07,14,14,08,15.80
2010,07,14,14,09,15.80
2010,07,14,14,10,15.80
2010,07,14,14,11,15.80
2010,07,14,14,12,15.80
2010,07,14,14,13,15.90
2010,07,14,14,14,15.90
2010,07,14,14,15,16.00
2010,07,14,14,16,16.20
2010,07,14,14,17,16.20
2010,07,14,14,18,16.20
2010,07,14,14,19,16.30
2010,07,14,14,20,16.30
2010,07,14,14,21,16.20
2010,07,14,14,22,15.90
2010,07,14,14,23,15.70
2010,07,14,14,24,15.40
2010,07,14,14,25,15.10
2010,07,14,14,26,14.80
2010,07,14,14,27,14.70
2010,07,14,14,28,14.60
2010,07,14,14,29,14.70
2010,07,14,14,30,14.90
2010,07,14,14,31,14.90
2010,07,14,14,32,15.10
2010,07,14,14,33,15.50
2010,07,14,14,34,15.60
2010,07,14,14,35,15.70
2010,07,14,14,36,16.10
2010,07,14,14,37,16.40
2010,07,14,14,38,16.30
2010,07,14,14,39,16.20
2010,07,14,14,40,16.10
2010,07,14,14,41,16.20
2010,07,14,14,42,16.40
2010,07,14,14,43,16.30
2010,07,14,14,44,16.40
2010,07,14,14,45,16.40
2010,07,14,14,46,16.30
2010,07,14,14,47,16.40
2010,07,14,14,48,16.40
2010,07,14,14,49,16.40
2010,07,14,14,50,16.50
2010,07,14,14,51,16.50
2010,07,14,14,52,16.40
2010,07,14,14,53,16.20
2010,07,14,14,54,16.10
2010,07,14,14,55,15.90
2010,07,14,14,56,15.80
2010,07,14,14,57,15.70
2010,07,14,14,58,15.50
2010,07,14,14,59,15.50
2010,07,14,15,00,15.30
2010,07,14,15,01,15.10
2010,07,14,15,02,14.90
2010,07,14,15,03,14.80
2010,07,14,15,04,14.90
2010,07,14,15,05,15.10
2010,07,14,15,06,15.10
2010,07,14,15,07,15.20
2010,07,14,15,08,15.20
2010,07,14,15,09,15.10
2010,07,14,15,10,15.10
2010,07,14,15,11,15.00
2010,07,14,15,12,14.80
2010,07,14,15,13,14.80
2010,07,14,15,14,14.70
2010,07,14,15,15,14.80
2010,07,14,15,16,14.60
2010,07,14,15,17,14.60
2010,07,14,15,18,14.60
2010,07,14,15,19,14.60
2010,07,14,15,20,14.60
2010,07,14,15,21,14.50
2010,07,14,15,22,14.30
2010,07,14,15,23,14.20
2010,07,14,15,24,14.10
2010,07,14,15,25,13.90
2010,07,14,15,26,13.70
2010,07,14,15,27,13.60
2010,07,14,15,28,13.50
2010,07,14,15,29,13.60
2010,07,14,15,30,13.90
2010,07,14,15,31,14.10
2010,07,14,15,32,14.20
2010,07,14,15,33,14.10
2010,07,14,15,34,14.20
2010,07,14,15,35,14.20
2010,07,14,15,36,14.50
2010,07,14,15,37,14.60
2010,07,14,15,38,14.70
2010,07,14,15,39,14.80
2010,07,14,15,40,14.80
2010,07,14,15,41,14.70
2010,07,14,15,42,14.30
2010,07,14,15,43,14.00
2010,07,14,15,44,13.90
2010,07,14,15,45,13.80
2010,07,14,15,46,13.70
2010,07,14,15,47,13.40
2010,07,14,15,48,13.10
2010,07,14,15,49,12.80
2010,07,14,15,50,12.70
2010,07,14,15,51,12.60
2010,07,14,15,52,12.50
2010,07,14,15,53,12.70
2010,07,14,15,54,12.80
2010,07,14,15,55,12.90
2010,07,14,15,56,13.10
2010,07,14,15,57,13.10
2010,07,14,15,58,12.90
2010,07,14,15,59,12.70
2010,07,14,16,00,12.60
2010,07,14,16,01,12.80
2010,07,14,16,02,12.80
2010,07,14,16,03,13.00
2010,07,14,16,04,13.20
2010,07,14,16,05,13.30
2010,07,14,16,06,13.50
2010,07,14,16,07,13.60
2010,07,14,16,08,13.50
2010,07,14,16,09,13.40
2010,07,14,16,10,13.40
2010,07,14,16,11,13.40
2010,07,14,16,12,13.40
2010,07,14,16,13,13.40
2010,07,14,16,14,13.40
2010,07,14,16,15,13.30
2010,07,14,16,16,13.20
2010,07,14,16,17,13.30
2010,07,14,16,18,13.40
2010,07,14,16,19,13.40
2010,07,14,16,20,13.40
2010,07,14,16,21,13.50
2010,07,14,16,22,13.50
2010,07,14,16,23,13.60
2010,07,14,16,24,13.70
2010,07,14,16,25,13.70
2010,07,14,16,26,13.80
2010,07,14,16,27,13.80
2010,07,14,16,28,13.90
2010,07,14,16,29,14.00
2010,07,14,16,30,14.00
2010,07,14,16,31,13.70
2010,07,14,16,32,13.40
2010,07,14,16,33,13.20
2010,07,14,16,34,13.10
2010,07,14,16,35,13.00
2010,07,14,16,36,13.00
2010,07,14,16,37,12.90
2010,07,14,16,38,12.80
2010,07,14,16,39,12.80
2010,07,14,16,40,12.60
2010,07,14,16,41,12.40
2010,07,14,16,42,12.30
2010,07,14,16,43,12.20
2010,07,14,16,44,12.20
2010,07,14,16,45,12.10
2010,07,14,16,46,12.10
2010,07,14,16,47,12.20
2010,07,14,16,48,12.30
2010,07,14,16,49,12.30
2010,07,14,16,50,12.30
2010,07,14,16,51,12.30
2010,07,14,16,52,12.40
2010,07,14,16,53,12.50
2010,07,14,16,54,12.60
2010,07,14,16,55,12.70
2010,07,14,16,56,12.80
2010,07,14,16,57,12.90
2010,07,14,16,58,13.10
2010,07,14,16,59,13.30
2010,07,14,17,00,13.50
2010,07,14,17,01,13.60
2010,07,14,17,02,13.70
2010,07,14,17,03,13.80
2010,07,14,17,04,13.90
2010,07,14,17,05,13.80
2010,07,14,17,06,13.90
2010,07,14,17,07,13.90
2010,07,14,17,08,13.90
2010,07,14,17,09,13.80
2010,07,14,17,10,13.70
2010,07,14,17,11,13.70
2010,07,14,17,12,13.70
2010,07,14,17,13,13.70
2010,07,14,17,14,13.70
2010,07,14,17,15,13.70
2010,07,14,17,16,13.70
2010,07,14,17,17,13.70
2010,07,14,17,18,13.70
2010,07,14,17,19,13.60
2010,07,14,17,20,13.50
2010,07,14,17,21,13.50
2010,07,14,17,22,13.50
2010,07,14,17,23,13.50
2010,07,14,17,24,13.30
2010,07,14,17,25,13.30
2010,07,14,17,26,13.30
2010,07,14,17,27,13.30
2010,07,14,17,28,13.40
2010,07,14,17,29,13.30
2010,07,14,17,30,13.20
2010,07,14,17,31,13.10
2010,07,14,17,32,13.10
2010,07,14,17,33,12.90
2010,07,14,17,34,12.90
2010,07,14,17,35,12.90
2010,07,14,17,36,12.80
2010,07,14,17,37,12.80
2010,07,14,17,38,12.80
2010,07,14,17,39,12.90
2010,07,14,17,40,12.90
2010,07,14,17,41,12.80
2010,07,14,17,42,12.80
2010,07,14,17,43,12.70